Hourly Data Report for October 09, 2013

All times are specified in Local Standard Time (LST). Add 1 hour to adjust for Daylight Saving Time where and when it is observed.

KITCHENER/WATERLOO
ONTARIO

43°27'39.000" N
80°22'43.000" W
321.60 m
6144239
71368
YKF

Download Data

Hourly Data (October 2013)
Hourly Data Report for October 9, 2013
Temp Definition
°C
Dew Point Temp Definition
°C
Rel Hum Definition
%
Wind Dir Definition
10's deg

Wind Spd Definition
km/h
Visibility Definition
km
Stn Press Definition
kPa
Hmdx Definition


Wind Chill Definition


Weather Definition


TIME
00:00 Legend Double Dagger 4.7 4.4 98   0 0.8 98.83     LegendNANA
01:00 Legend Double Dagger 4.3 4.0 98 2 4 0.4 98.85     LegendNANA
02:00 Legend Double Dagger 5.0 4.8 98   0 0.4 98.85     LegendNANA
03:00 Legend Double Dagger 4.0 3.9 99 LegendMM 4 0.6 98.86     LegendNANA
04:00 Legend Double Dagger 3.5 3.4 99 7 4 2.0 98.89     LegendNANA
05:00 Legend Double Dagger 3.3 3.2 99   0 0.4 98.89     LegendNANA
06:00 Legend Double Dagger 2.2 2.1 99   0 0.4 98.93     LegendNANA
07:00 Legend Double Dagger 3.3 3.2 99   0 2.4 98.97     LegendNANA
08:00 Legend Double Dagger 7.5 7.2 98   0 6.4 98.99     LegendNANA
09:00 Legend Double Dagger 12.1 10.0 87 11 5 16.1 99.01     LegendNANA
10:00 Legend Double Dagger 15.2 9.9 70 13 18 16.1 99.00     LegendNANA
11:00 Legend Double Dagger 16.5 9.3 62 17 13 16.1 98.99     LegendNANA
12:00 Legend Double Dagger 17.8 8.9 55 15 15 16.1 98.94     LegendNANA
13:00 Legend Double Dagger 18.6 7.6 48 17 11 16.1 98.85     LegendNANA
14:00 Legend Double Dagger 19.0 7.5 47 18 11 16.1 98.80     LegendNANA
15:00 Legend Double Dagger 19.5 7.1 44 LegendMM 5 16.1 98.72     LegendNANA
16:00 Legend Double Dagger 19.0 9.5 54 11 17 16.1 98.71     LegendNANA
17:00 Legend Double Dagger 16.7 8.9 60 12 15 16.1 98.72     LegendNANA
18:00 Legend Double Dagger 13.3 8.8 74 12 13 16.1 98.70     LegendNANA
19:00 Legend Double Dagger 10.6 8.1 84 9 8 16.1 98.72     LegendNANA
20:00 Legend Double Dagger 8.4 7.0 91 9 8 16.1 98.73     LegendNANA
21:00 Legend Double Dagger 6.8 6.4 97   0 16.1 98.73     LegendNANA
22:00 Legend Double Dagger 5.4 5.0 97   0 0.8 98.73     LegendNANA
23:00 Legend Double Dagger 5.6 5.3 98   0 0.4 98.69     LegendNANA

Notes on Data Quality.

Legend

  • E = Estimated
  • M = Missing
  • NA = Not Available
  • ‡ = Partner data that is not subject to review by the National Climate Archives
Date modified: